| time (UTC) | temp F | wind direction | speed MPH | gust MPH | rain 1hr in | rain 24hr in | rain mn in | humidity % | barometer mb |
| 20260506161005 | 60 | 148 | 1.0 | 2.0 | 0.00 | 0.35 | 0.00 | 96 | 1026.8 |
| 20260506160005 | 60 | 134 | 1.0 | 2.0 | 0.00 | 0.35 | 0.00 | 96 | 1026.8 |
| 20260506155505 | 60 | 135 | 1.0 | 3.0 | 0.00 | 0.35 | 0.00 | 96 | 1026.8 |
| 20260506155005 | 60 | 140 | 2.0 | 3.0 | 0.00 | 0.35 | 0.00 | 96 | 1026.9 |
| 20260506154505 | 60 | 149 | 0.0 | 2.0 | 0.00 | 0.35 | 0.00 | 96 | 1027.0 |
| 20260506154006 | 60 | 143 | 1.0 | 2.0 | 0.00 | 0.35 | 0.00 | 96 | 1027.0 |
| 20260506153504 | 60 | 149 | 1.0 | 2.0 | 0.00 | 0.35 | 0.00 | 96 | 1027.0 |
| 20260506153005 | 60 | 138 | 1.0 | 2.0 | 0.00 | 0.35 | 0.00 | 96 | 1027.0 |
| 20260506152505 | 60 | 158 | 1.0 | 3.0 | 0.00 | 0.35 | 0.00 | 96 | 1027.2 |
| 20260506152005 | 60 | 144 | 1.0 | 3.0 | 0.00 | 0.35 | 0.00 | 96 | 1027.2 |
| 20260506151505 | 60 | 135 | 0.0 | 2.0 | 0.00 | 0.35 | 0.00 | 96 | 1027.3 |
| 20260506151005 | 60 | 134 | 0.0 | 1.0 | 0.00 | 0.35 | 0.00 | 96 | 1027.4 |
| 20260506145505 | 60 | 134 | 0.0 | 1.0 | 0.00 | 0.35 | 0.00 | 96 | 1027.5 |
| 20260506145005 | 60 | 134 | 0.0 | 1.0 | 0.00 | 0.36 | 0.00 | 96 | 1027.5 |
| 20260506144505 | 60 | 134 | 1.0 | 2.0 | 0.00 | 0.39 | 0.00 | 96 | 1027.6 |
| 20260506144005 | 60 | 130 | 1.0 | 2.0 | 0.00 | 0.39 | 0.00 | 96 | 1027.6 |
| 20260506143505 | 60 | 139 | 1.0 | 2.0 | 0.00 | 0.39 | 0.00 | 96 | 1027.6 |
| 20260506143005 | 60 | 183 | 0.0 | 1.0 | 0.00 | 0.39 | 0.00 | 96 | 1027.8 |
| 20260506142505 | 60 | 183 | 0.0 | 1.0 | 0.00 | 0.39 | 0.00 | 96 | 1027.9 |
| 20260506142005 | 60 | 183 | 0.0 | 1.0 | 0.00 | 0.39 | 0.00 | 96 | 1028.0 |
| 20260506141005 | 60 | 183 | 1.0 | 1.0 | 0.00 | 0.39 | 0.00 | 96 | 1028.0 |
| 20260506140005 | 60 | 183 | 0.0 | 1.0 | 0.00 | 0.39 | 0.00 | 96 | 1028.0 |
| 20260506135004 | 60 | 183 | 0.0 | 2.0 | 0.00 | 0.39 | 0.00 | 96 | 1028.1 |
| 20260506134505 | 60 | 183 | 1.0 | 2.0 | 0.00 | 0.39 | 0.00 | 96 | 1028.1 |
| 20260506134005 | 60 | 183 | 1.0 | 2.0 | 0.00 | 0.39 | 0.00 | 96 | 1028.1 |
| 20260506133505 | 60 | 183 | 0.0 | 1.0 | 0.00 | 0.39 | 0.00 | 96 | 1028.1 |
| 20260506132005 | 60 | 183 | 1.0 | 2.0 | 0.00 | 0.39 | 0.00 | 96 | 1028.2 |
| 20260506131505 | 60 | 183 | 1.0 | 1.0 | 0.00 | 0.39 | 0.00 | 96 | 1028.2 |
| 20260506131005 | 60 | 183 | 1.0 | 2.0 | 0.00 | 0.39 | 0.00 | 96 | 1028.1 |
| 20260506130006 | 60 | 183 | 1.0 | 2.0 | 0.00 | 0.39 | 0.00 | 96 | 1028.1 |
| 20260506125506 | 60 | 183 | 1.0 | 2.0 | 0.20 | 0.39 | 0.00 | 96 | 1028.1 |
| 20260506125006 | 60 | 183 | 1.0 | 2.0 | 0.20 | 0.39 | 0.00 | 96 | 1028.1 |
| 20260506124504 | 60 | 176 | 1.0 | 3.0 | 0.20 | 0.39 | 0.00 | 96 | 1028.1 |
| 20260506124005 | 60 | 170 | 1.0 | 3.0 | 0.20 | 0.39 | 0.00 | 96 | 1028.1 |
| 20260506123505 | 60 | 170 | 1.0 | 2.0 | 0.20 | 0.39 | 0.00 | 96 | 1028.1 |
| 20260506123004 | 60 | 170 | 1.0 | 2.0 | 0.20 | 0.39 | 0.00 | 96 | 1028.1 |
| 20260506122505 | 60 | 170 | 1.0 | 2.0 | 0.20 | 0.39 | 0.00 | 96 | 1028.2 |
| 20260506122004 | 60 | 170 | 1.0 | 2.0 | 0.20 | 0.39 | 0.00 | 96 | 1028.4 |
| 20260506121505 | 60 | 170 | 0.0 | 2.0 | 0.20 | 0.39 | 0.00 | 96 | 1028.4 |
| 20260506121005 | 60 | 161 | 1.0 | 2.0 | 0.00 | 0.39 | 0.20 | 96 | 1028.3 |
| 20260506120006 | 60 | 150 | 1.0 | 3.0 | 0.00 | 0.20 | 0.00 | 96 | 1028.4 |
| 20260506115505 | 60 | 154 | 2.0 | 3.0 | 0.00 | 0.20 | 0.20 | 96 | 1028.5 |
| 20260506115005 | 60 | 148 | 1.0 | 2.0 | 0.00 | 0.20 | 0.20 | 96 | 1028.6 |
| 20260506114505 | 60 | 148 | 1.0 | 2.0 | 0.00 | 0.20 | 0.20 | 96 | 1028.6 |
| 20260506114005 | 60 | 148 | 1.0 | 2.0 | 0.00 | 0.20 | 0.20 | 96 | 1028.6 |
| 20260506113505 | 60 | 149 | 1.0 | 2.0 | 0.00 | 0.20 | 0.20 | 96 | 1028.6 |
| 20260506113005 | 60 | 139 | 1.0 | 2.0 | 0.00 | 0.20 | 0.20 | 96 | 1028.6 |
| 20260506112505 | 60 | 157 | 0.0 | 2.0 | 0.00 | 0.20 | 0.20 | 96 | 1028.6 |
| 20260506112005 | 60 | 157 | 1.0 | 2.0 | 0.00 | 0.20 | 0.20 | 96 | 1028.6 |
| 20260506111505 | 60 | 157 | 1.0 | 2.0 | 0.00 | 0.20 | 0.20 | 96 | 1028.6 |
| 20260506111005 | 60 | 157 | 0.0 | 2.0 | 0.00 | 0.20 | 0.20 | 96 | 1028.6 |
| 20260506110004 | 60 | 138 | 1.0 | 2.0 | 0.00 | 0.20 | 0.20 | 95 | 1028.6 |
| 20260506105505 | 60 | 164 | 1.0 | 2.0 | 0.00 | 0.20 | 0.20 | 95 | 1028.6 |
| 20260506105005 | 60 | 143 | 1.0 | 2.0 | 0.00 | 0.20 | 0.20 | 95 | 1028.6 |
| 20260506104505 | 60 | 125 | 0.0 | 2.0 | 0.00 | 0.20 | 0.20 | 95 | 1028.6 |
| 20260506104006 | 60 | 117 | 1.0 | 2.0 | 0.00 | 0.20 | 0.20 | 95 | 1028.6 |
| 20260506103005 | 60 | 150 | 0.0 | 2.0 | 0.00 | 0.20 | 0.20 | 95 | 1028.9 |
| 20260506102504 | 60 | 150 | 1.0 | 2.0 | 0.00 | 0.20 | 0.20 | 95 | 1028.9 |
| 20260506102004 | 60 | 150 | 1.0 | 2.0 | 0.00 | 0.20 | 0.20 | 95 | 1028.9 |
| 20260506101504 | 60 | 151 | 1.0 | 2.0 | 0.00 | 0.20 | 0.20 | 95 | 1028.9 |
| 20260506095505 | 60 | 147 | 1.0 | 2.0 | 0.00 | 0.20 | 0.20 | 95 | 1029.1 |
| 20260506095013 | 60 | 147 | 1.0 | 2.0 | 0.00 | 0.20 | 0.20 | 95 | 1029.1 |
| 20260506094012 | 60 | 193 | 1.0 | 2.0 | 0.01 | 0.20 | 0.20 | 95 | 1029.1 |
| 20260506093509 | 60 | 193 | 0.0 | 1.0 | 0.02 | 0.20 | 0.20 | 95 | 1029.1 |
| 20260506093011 | 60 | 193 | 1.0 | 1.0 | 0.02 | 0.20 | 0.20 | 95 | 1029.1 |
| 20260506092510 | 60 | 193 | 1.0 | 1.0 | 0.02 | 0.20 | 0.20 | 94 | 1029.1 |
| 20260506092007 | 60 | 193 | 0.0 | 1.0 | 0.02 | 0.20 | 0.20 | 95 | 1029.1 |
| 20260506091506 | 61 | 193 | 0.0 | 1.0 | 0.02 | 0.20 | 0.20 | 95 | 1029.1 |
| 20260506091008 | 61 | 193 | 0.0 | 1.0 | 0.02 | 0.20 | 0.20 | 95 | 1029.1 |
| 20260506085512 | 61 | 193 | 1.0 | 2.0 | 0.02 | 0.20 | 0.20 | 94 | 1029.1 |
| 20260506083511 | 61 | 0 | 0.0 | 1.0 | 0.00 | 0.18 | 0.18 | 95 | 1029.2 |
| 20260506083014 | 61 | 254 | 0.0 | 2.0 | 0.00 | 0.18 | 0.18 | 95 | 1029.1 |
| 20260506082510 | 61 | 165 | 1.0 | 2.0 | 0.00 | 0.18 | 0.18 | 95 | 1029.1 |
| 20260506082010 | 61 | 165 | 1.0 | 2.0 | 0.00 | 0.18 | 0.18 | 95 | 1029.1 |
| 20260506081008 | 61 | 165 | 0.0 | 2.0 | 0.00 | 0.18 | 0.18 | 95 | 1029.1 |
| 20260506073007 | 62 | 114 | 0.0 | 1.0 | 0.00 | 0.18 | 0.18 | 94 | 1029.1 |
| 20260506072508 | 62 | 114 | 0.0 | 1.0 | 0.00 | 0.18 | 0.18 | 94 | 1029.1 |
| 20260506072008 | 62 | 114 | 0.0 | 1.0 | 0.00 | 0.18 | 0.18 | 94 | 1029.1 |
| 20260506071507 | 62 | 114 | 0.0 | 1.0 | 0.00 | 0.18 | 0.18 | 94 | 1029.1 |
| 20260506061507 | 62 | 79 | 0.0 | 1.0 | 0.00 | 0.18 | 0.18 | 94 | 1028.8 |
| 20260506061007 | 62 | 79 | 0.0 | 1.0 | 0.00 | 0.18 | 0.18 | 94 | 1028.7 |
| 20260506051007 | 63 | 20 | 0.0 | 0.0 | 0.00 | 0.18 | 0.18 | 92 | 1028.6 |
| 20260506045008 | 64 | 17 | 0.0 | 2.0 | 0.00 | 0.18 | 0.18 | 91 | 1028.6 |
| 20260506044507 | 64 | 3 | 1.0 | 2.0 | 0.00 | 0.18 | 0.18 | 90 | 1028.6 |
| 20260506044007 | 64 | 12 | 1.0 | 3.0 | 0.00 | 0.18 | 0.18 | 90 | 1028.6 |
| 20260506043507 | 64 | 8 | 0.0 | 3.0 | 0.00 | 0.18 | 0.18 | 90 | 1028.6 |
| 20260506043007 | 64 | 5 | 1.0 | 3.0 | 0.00 | 0.18 | 0.18 | 89 | 1028.6 |
| 20260506042507 | 64 | 345 | 1.0 | 2.0 | 0.00 | 0.18 | 0.18 | 88 | 1028.7 |
| 20260506042006 | 64 | 23 | 0.0 | 2.0 | 0.00 | 0.18 | 0.18 | 88 | 1028.7 |
| 20260506041007 | 64 | 9 | 1.0 | 3.0 | 0.00 | 0.18 | 0.18 | 88 | 1028.9 |
| 20260506040005 | 64 | 32 | 2.0 | 5.0 | 0.00 | 0.18 | 0.18 | 87 | 1028.8 |
| 20260506035506 | 64 | 20 | 2.0 | 6.0 | 0.00 | 0.18 | 0.18 | 88 | 1028.8 |
| 20260506035005 | 64 | 38 | 2.0 | 6.0 | 0.00 | 0.18 | 0.18 | 88 | 1028.7 |
| 20260506034506 | 64 | 43 | 1.0 | 5.0 | 0.00 | 0.18 | 0.18 | 88 | 1028.7 |
| 20260506034006 | 64 | 22 | 2.0 | 5.0 | 0.00 | 0.18 | 0.18 | 88 | 1028.7 |
| 20260506033505 | 64 | 351 | 3.0 | 5.0 | 0.00 | 0.18 | 0.18 | 88 | 1028.8 |
| 20260506033006 | 64 | 349 | 1.0 | 3.0 | 0.00 | 0.18 | 0.18 | 89 | 1028.9 |
| 20260506031506 | 65 | 18 | 1.0 | 6.0 | 0.00 | 0.18 | 0.18 | 87 | 1028.8 |
| 20260506030006 | 65 | 43 | 1.0 | 3.0 | 0.00 | 0.18 | 0.18 | 88 | 1028.6 |
| 20260506025505 | 65 | 65 | 0.0 | 5.0 | 0.01 | 0.18 | 0.18 | 89 | 1028.6 |
| 20260506025006 | 66 | 71 | 1.0 | 5.0 | 0.01 | 0.18 | 0.18 | 88 | 1028.7 |
| 20260506024505 | 66 | 18 | 1.0 | 3.0 | 0.01 | 0.18 | 0.18 | 89 | 1028.8 |
| 20260506024006 | 66 | 18 | 1.0 | 3.0 | 0.01 | 0.18 | 0.18 | 89 | 1028.9 |
| 20260506023506 | 65 | 23 | 1.0 | 3.0 | 0.01 | 0.18 | 0.18 | 89 | 1028.9 |
| 20260506023005 | 66 | 17 | 2.0 | 3.0 | 0.01 | 0.18 | 0.18 | 89 | 1028.9 |
| 20260506022006 | 66 | 15 | 1.0 | 3.0 | 0.01 | 0.18 | 0.18 | 89 | 1028.8 |
| 20260506021506 | 66 | 2 | 2.0 | 3.0 | 0.01 | 0.18 | 0.18 | 90 | 1028.7 |
| 20260506021006 | 66 | 1 | 1.0 | 3.0 | 0.01 | 0.18 | 0.18 | 89 | 1028.7 |
| 20260506020006 | 65 | 18 | 1.0 | 3.0 | 0.01 | 0.18 | 0.18 | 91 | 1028.7 |
| 20260506015006 | 65 | 54 | 1.0 | 6.0 | 0.00 | 0.17 | 0.17 | 91 | 1028.7 |
| 20260506014505 | 65 | 19 | 2.0 | 6.0 | 0.00 | 0.17 | 0.17 | 89 | 1028.8 |
| 20260506014005 | 65 | 5 | 2.0 | 5.0 | 0.00 | 0.17 | 0.17 | 89 | 1028.8 |
| 20260506013505 | 65 | 9 | 2.0 | 3.0 | 0.00 | 0.17 | 0.17 | 89 | 1028.8 |
| 20260506012005 | 65 | 11 | 1.0 | 5.0 | 0.00 | 0.17 | 0.17 | 89 | 1029.1 |
| 20260506011506 | 65 | 19 | 1.0 | 5.0 | 0.00 | 0.17 | 0.17 | 90 | 1029.1 |
| 20260506011007 | 65 | 65 | 1.0 | 2.0 | 0.00 | 0.17 | 0.17 | 92 | 1029.1 |
| 20260506010005 | 64 | 18 | 1.0 | 3.0 | 0.00 | 0.17 | 0.17 | 93 | 1029.1 |
| 20260506004006 | 63 | 6 | 1.0 | 3.0 | 0.00 | 0.17 | 0.17 | 94 | 1029.5 |
| 20260506003505 | 63 | 316 | 0.0 | 3.0 | 0.00 | 0.17 | 0.17 | 94 | 1029.6 |
| 20260506003006 | 63 | 252 | 2.0 | 3.0 | 0.00 | 0.17 | 0.17 | 94 | 1029.6 |
| 20260506002506 | 63 | 4 | 1.0 | 3.0 | 0.01 | 0.17 | 0.17 | 94 | 1029.7 |
| 20260506002005 | 63 | 294 | 2.0 | 3.0 | 0.01 | 0.17 | 0.17 | 94 | 1029.7 |
| 20260506001506 | 62 | 313 | 2.0 | 5.0 | 0.02 | 0.17 | 0.17 | 93 | 1029.9 |
| 20260506001006 | 62 | 271 | 2.0 | 5.0 | 0.02 | 0.17 | 0.17 | 93 | 1030.0 |
| 20260506000005 | 63 | 8 | 1.0 | 3.0 | 0.02 | 0.17 | 0.17 | 93 | 1030.1 |
| 20260505235505 | 63 | 325 | 1.0 | 2.0 | 0.02 | 0.17 | 0.17 | 93 | 1030.1 |
| 20260505234505 | 63 | 358 | 1.0 | 3.0 | 0.02 | 0.17 | 0.17 | 94 | 1030.1 |
| 20260505234005 | 63 | 0 | 1.0 | 3.0 | 0.02 | 0.17 | 0.17 | 94 | 1030.2 |
| 20260505233505 | 63 | 93 | 1.0 | 3.0 | 0.02 | 0.17 | 0.17 | 94 | 1030.2 |
| 20260505233006 | 63 | 111 | 1.0 | 3.0 | 0.02 | 0.17 | 0.17 | 94 | 1030.3 |
| 20260505232505 | 63 | 36 | 1.0 | 3.0 | 0.01 | 0.17 | 0.17 | 94 | 1030.4 |
| 20260505232006 | 62 | 17 | 1.0 | 3.0 | 0.01 | 0.17 | 0.17 | 94 | 1030.5 |
| 20260505231505 | 62 | 19 | 1.0 | 3.0 | 0.00 | 0.16 | 0.16 | 93 | 1030.5 |
| 20260505231005 | 62 | 261 | 1.0 | 2.0 | 0.00 | 0.16 | 0.16 | 94 | 1030.5 |
| 20260505230006 | 62 | 134 | 1.0 | 2.0 | 0.00 | 0.16 | 0.16 | 95 | 1030.6 |
| 20260505225505 | 62 | 350 | 0.0 | 2.0 | 0.00 | 0.16 | 0.16 | 95 | 1030.5 |
| 20260505224505 | 62 | 77 | 1.0 | 2.0 | 0.00 | 0.16 | 0.16 | 95 | 1030.7 |
| 20260505223505 | 62 | 129 | 1.0 | 2.0 | 0.00 | 0.16 | 0.16 | 96 | 1030.7 |
| 20260505223006 | 61 | 184 | 1.0 | 2.0 | 0.00 | 0.16 | 0.16 | 96 | 1030.7 |
| 20260505222505 | 61 | 173 | 1.0 | 2.0 | 0.00 | 0.16 | 0.16 | 96 | 1030.7 |
| 20260505222005 | 61 | 174 | 1.0 | 3.0 | 0.00 | 0.16 | 0.16 | 96 | 1030.7 |
| 20260505221505 | 61 | 132 | 0.0 | 3.0 | 0.00 | 0.16 | 0.16 | 96 | 1030.7 |
| 20260505221006 | 61 | 85 | 2.0 | 3.0 | 0.00 | 0.16 | 0.16 | 96 | 1030.8 |
| 20260505220006 | 61 | 193 | 0.0 | 1.0 | 0.02 | 0.16 | 0.16 | 96 | 1030.8 |
| 20260505215505 | 61 | 193 | 0.0 | 2.0 | 0.03 | 0.16 | 0.16 | 96 | 1030.8 |
| 20260505215005 | 60 | 193 | 0.0 | 2.0 | 0.05 | 0.16 | 0.16 | 96 | 1030.8 |
| 20260505214505 | 60 | 177 | 1.0 | 2.0 | 0.06 | 0.16 | 0.16 | 96 | 1030.8 |
| 20260505214005 | 60 | 170 | 1.0 | 1.0 | 0.07 | 0.16 | 0.16 | 96 | 1030.8 |
| 20260505213505 | 60 | 170 | 0.0 | 1.0 | 0.07 | 0.16 | 0.16 | 96 | 1030.7 |
| 20260505212505 | 60 | 91 | 0.0 | 2.0 | 0.07 | 0.16 | 0.16 | 96 | 1030.8 |
| 20260505212005 | 60 | 131 | 0.0 | 1.0 | 0.07 | 0.16 | 0.16 | 96 | 1030.8 |
| 20260505211505 | 60 | 132 | 0.0 | 1.0 | 0.07 | 0.16 | 0.16 | 96 | 1030.8 |
| 20260505210006 | 59 | 151 | 0.0 | 2.0 | 0.06 | 0.14 | 0.14 | 96 | 1031.0 |
| 20260505205505 | 60 | 93 | 0.0 | 1.0 | 0.04 | 0.13 | 0.13 | 96 | 1031.0 |
| 20260505205006 | 59 | 115 | 0.0 | 1.0 | 0.02 | 0.11 | 0.11 | 96 | 1030.9 |
| 20260505204505 | 59 | 115 | 0.0 | 1.0 | 0.01 | 0.09 | 0.09 | 96 | 1030.9 |
| 20260505204006 | 59 | 115 | 0.0 | 1.0 | 0.00 | 0.09 | 0.09 | 96 | 1030.9 |
| 20260505203506 | 59 | 115 | 0.0 | 2.0 | 0.00 | 0.09 | 0.09 | 96 | 1030.9 |
| 20260505203006 | 59 | 140 | 1.0 | 2.0 | 0.00 | 0.09 | 0.09 | 96 | 1030.8 |
| 20260505202505 | 59 | 203 | 0.0 | 2.0 | 0.00 | 0.09 | 0.09 | 96 | 1030.8 |
| 20260505202006 | 59 | 142 | 1.0 | 2.0 | 0.00 | 0.09 | 0.09 | 96 | 1030.7 |
| 20260505201505 | 59 | 185 | 1.0 | 2.0 | 0.00 | 0.09 | 0.09 | 96 | 1030.7 |
| 20260505201005 | 59 | 136 | 1.0 | 2.0 | 0.00 | 0.09 | 0.09 | 96 | 1030.7 |
| 20260505200006 | 58 | 140 | 1.0 | 2.0 | 0.00 | 0.09 | 0.09 | 96 | 1030.6 |
| 20260505195006 | 58 | 143 | 1.0 | 2.0 | 0.01 | 0.09 | 0.09 | 96 | 1030.4 |
| 20260505194505 | 58 | 125 | 1.0 | 2.0 | 0.02 | 0.09 | 0.09 | 96 | 1030.3 |
| 20260505194005 | 58 | 147 | 1.0 | 2.0 | 0.03 | 0.09 | 0.09 | 96 | 1030.2 |
| 20260505193506 | 58 | 133 | 1.0 | 2.0 | 0.03 | 0.09 | 0.09 | 96 | 1030.2 |
| 20260505193005 | 58 | 134 | 0.0 | 1.0 | 0.03 | 0.09 | 0.09 | 96 | 1030.2 |
| 20260505192505 | 58 | 144 | 0.0 | 1.0 | 0.03 | 0.09 | 0.09 | 96 | 1030.2 |
| 20260505192005 | 58 | 140 | 0.0 | 1.0 | 0.03 | 0.09 | 0.09 | 96 | 1030.2 |
| 20260505191005 | 58 | 160 | 1.0 | 2.0 | 0.04 | 0.09 | 0.09 | 96 | 1030.2 |
| 20260505190006 | 58 | 159 | 1.0 | 2.0 | 0.04 | 0.09 | 0.09 | 96 | 1030.2 |
| 20260505185505 | 58 | 144 | 1.0 | 2.0 | 0.04 | 0.09 | 0.09 | 96 | 1030.2 |
| 20260505185005 | 58 | 128 | 1.0 | 2.0 | 0.03 | 0.08 | 0.08 | 96 | 1030.2 |
| 20260505183506 | 57 | 161 | 0.0 | 1.0 | 0.01 | 0.06 | 0.06 | 96 | 1030.2 |
| 20260505183005 | 58 | 146 | 0.0 | 2.0 | 0.01 | 0.06 | 0.06 | 96 | 1030.1 |
| 20260505182005 | 57 | 150 | 1.0 | 2.0 | 0.01 | 0.06 | 0.06 | 96 | 1030.2 |
| 20260505181506 | 57 | 144 | 1.0 | 2.0 | 0.00 | 0.05 | 0.05 | 96 | 1030.2 |
| 20260505181005 | 57 | 140 | 1.0 | 2.0 | 0.00 | 0.05 | 0.05 | 96 | 1030.2 |
| 20260505180006 | 57 | 147 | 1.0 | 2.0 | 0.00 | 0.05 | 0.05 | 96 | 1030.2 |
| 20260505175505 | 57 | 146 | 1.0 | 2.0 | 0.00 | 0.05 | 0.05 | 95 | 1030.2 |
| 20260505175005 | 57 | 143 | 0.0 | 2.0 | 0.00 | 0.05 | 0.05 | 95 | 1030.2 |
| 20260505174505 | 57 | 143 | 1.0 | 2.0 | 0.00 | 0.05 | 0.05 | 95 | 1030.2 |
| 20260505174005 | 57 | 140 | 1.0 | 2.0 | 0.00 | 0.05 | 0.05 | 95 | 1030.2 |
| 20260505173505 | 57 | 140 | 0.0 | 2.0 | 0.00 | 0.05 | 0.05 | 95 | 1030.2 |
| 20260505173005 | 57 | 140 | 0.0 | 2.0 | 0.00 | 0.05 | 0.05 | 95 | 1030.2 |
| 20260505172505 | 57 | 149 | 2.0 | 2.0 | 0.00 | 0.05 | 0.05 | 95 | 1030.2 |
| 20260505171505 | 57 | 141 | 1.0 | 2.0 | 0.00 | 0.05 | 0.05 | 95 | 1030.2 |
| 20260505171005 | 57 | 141 | 0.0 | 2.0 | 0.00 | 0.05 | 0.05 | 95 | 1030.1 |
| 20260505170005 | 57 | 141 | 1.0 | 2.0 | 0.01 | 0.05 | 0.05 | 95 | 1030.1 |
| 20260505165505 | 57 | 141 | 1.0 | 1.0 | 0.01 | 0.05 | 0.05 | 95 | 1030.1 |
| 20260505165005 | 57 | 141 | 1.0 | 2.0 | 0.01 | 0.05 | 0.05 | 95 | 1030.1 |
| 20260505164505 | 57 | 141 | 0.0 | 2.0 | 0.01 | 0.05 | 0.05 | 95 | 1030.1 |
| 20260505164005 | 57 | 141 | 1.0 | 2.0 | 0.01 | 0.05 | 0.05 | 95 | 1030.1 |
| 20260505163006 | 57 | 141 | 1.0 | 2.0 | 0.01 | 0.05 | 0.05 | 95 | 1030.1 |
| 20260505162505 | 57 | 141 | 1.0 | 3.0 | 0.01 | 0.05 | 0.05 | 95 | 1030.1 |
| 20260505162006 | 57 | 175 | 1.0 | 3.0 | 0.01 | 0.05 | 0.05 | 95 | 1030.1 |
| 20260505161505 | 57 | 144 | 1.0 | 3.0 | 0.01 | 0.05 | 0.05 | 95 | 1030.1 |